{"data":{"norad_id":48861,"epoch":"2026-05-24T20:38:42.449856Z","epoch_age_seconds":86854,"freshness":"FRESH","line1":"1 48861U 21055B   26144.86021354  .00002492  00000+0  18583-3 0  9990","line2":"2 48861  34.9956 294.0348 0004642 243.1192 116.9042 15.02542425269665","mean_motion":15.02542425,"eccentricity":0.0004642,"inclination_deg":34.9956,"raan_deg":294.0348,"arg_perigee_deg":243.1192,"mean_anomaly_deg":116.9042,"bstar":0.00018583,"rev_number":26966,"period_min":95.837560127462,"perigee_km":555.83951055242,"apogee_km":562.28000402188,"semimajor_km":6937.1967572872,"source":"CELESTRAK","updated_at":"2026-05-25T13:37:56.973821Z"}}